[[{"header":{"parameterUnit":"m.s-1","parameterCategory":1,"la1":30.2991,"la2":30.254,"lo1":-89.0895,"lo2":-89.0444,"dy":0.0017,"dx":0.0017,"nx":28,"ny":28,"refTime":"2025-11-05T09:00:00:Z","depth":0,"parameterNumber":2,"parameterNumberName":"U-component_of_WINDS"},"data":[0,0,0,0,0,0,0,0,0,0,0,0,0,0,0,0,0,0,0,0,0,0,0,0,0,0,0,0,0,0,0,0,0,0,0,0,0,0,0,0,0,0,0,0,0,0,0,0,0,0,0,0,0,0,0,0,0,0,-1.4152,-1.4153,0,-1.4204,-1.4204,-1.4205,-1.415,-1.4148,-1.4146,-1.4144,-1.42,-1.4204,-1.4207,0,0,0,0,0,0,0,0,0,0,0,0,0,-1.4008,-1.4011,-1.4152,-1.4153,-1.4153,-1.4204,-1.4204,-1.4205,-1.4151,-1.4148,-1.4146,-1.4143,-1.4199,-1.4203,-1.4208,0,0,0,0,0,0,0,0,0,0,0,0,0,-1.4067,-1.4012,-1.4152,-1.4132,-1.4131,-1.4204,-1.4204,-1.4205,-1.4151,-1.4148,-1.4145,-1.4142,-1.4198,-1.4203,-1.4208,-1.4304,0,0,-1.4224,-1.4226,0,0,0,0,0,0,0,0,-1.4063,-1.4072,-1.4135,-1.4134,-1.4133,-1.4167,-1.4174,-1.4238,-1.4152,-1.4144,-1.4144,-1.4141,-1.4192,-1.4198,-1.4214,-1.4306,-1.4309,-1.4225,-1.4228,-1.423,-1.4231,0,0,0,0,0,0,0,-1.4059,-1.4069,-1.4173,-1.4136,-1.4134,-1.4121,-1.4126,-1.4186,-1.4185,-1.4144,-1.414,-1.4147,-1.4191,-1.421,-1.4215,-1.431,-1.4224,-1.4229,-1.4232,-1.4234,-1.4482,-1.4485,0,0,0,0,0,0,-1.4057,-1.4066,-1.4171,-1.4174,-1.4089,-1.4127,-1.4132,-1.4159,-1.4184,-1.4185,-1.415,-1.4144,-1.4202,-1.4209,-1.4217,-1.4331,-1.423,-1.4235,-1.4238,-1.4478,-1.4483,-1.4486,0,0,0,0,0,0,-1.4054,-1.4067,-1.4169,-1.4119,-1.4131,-1.4132,-1.4164,-1.4162,-1.4181,-1.4189,-1.4188,-1.4169,-1.42,-1.421,-1.4282,-1.4332,-1.4237,-1.4242,-1.4474,-1.448,-1.4485,-1.456,0,0,0,0,0,0,-1.405,-1.4066,-1.4103,-1.412,-1.4134,-1.4233,-1.4167,-1.4165,-1.4189,-1.4183,-1.4206,-1.4207,-1.4198,-1.4275,-1.4287,-1.4338,-1.4246,-1.447,-1.4477,-1.4483,-1.4553,-1.4567,-1.4579,0,0,0,0,0,-1.4045,-1.4123,-1.4105,-1.4118,-1.4179,-1.4236,-1.4244,-1.4231,-1.4194,-1.423,-1.4235,-1.4207,-1.4324,-1.4283,-1.4296,-1.4349,-1.4467,-1.4475,-1.4482,-1.4547,-1.4564,-1.4579,0,0,0,0,0,0,-1.4112,-1.4125,-1.4105,-1.419,-1.4212,-1.4227,-1.4273,-1.425,-1.4284,-1.4277,-1.426,-1.4266,-1.4343,-1.4353,-1.4306,-1.4443,-1.4389,-1.44,-1.4434,-1.445,-1.4463,-1.446,-1.425,0,0,0,0,0,-1.4136,-1.4181,-1.4189,-1.4264,-1.4275,-1.4272,-1.4297,-1.4284,-1.4307,-1.4317,-1.4327,-1.4351,-1.4393,-1.4422,-1.4461,-1.4553,-1.4558,-1.4596,-1.4609,-1.4619,-1.463,-1.468,-1.4697,-1.4512,-1.4512,-1.4512,0,0,-1.4188,-1.42,-1.4229,-1.4277,-1.4293,-1.434,-1.4281,-1.4333,-1.4368,-1.4325,-1.4394,-1.4402,-1.4428,-1.451,-1.4547,-1.4521,-1.4681,-1.4629,-1.4638,-1.4643,-1.4689,-1.4707,-1.4723,-1.4517,-1.4516,-1.4515,0,0,-1.4306,-1.4319,-1.4382,-1.4399,-1.4423,-1.442,-1.4435,-1.4452,-1.4456,-1.4524,-1.4493,-1.4534,-1.4607,-1.4627,-1.4646,-1.4769,-1.4744,-1.4782,-1.4851,-1.49,-1.4914,-1.4927,-1.4973,-1.4989,-1.4792,-1.4792,-1.4792,0,-1.4368,-1.4437,-1.4418,-1.4473,-1.4495,-1.4455,-1.452,-1.4537,-1.4573,-1.459,-1.4559,-1.4649,-1.4664,-1.475,-1.478,-1.4797,-1.4814,-1.4781,-1.4913,-1.4926,-1.4938,-1.4981,-1.4998,-1.4796,-1.4796,-1.4795,-1.4795,0,-1.4511,-1.456,-1.4608,-1.4643,-1.467,-1.4729,-1.472,-1.475,-1.4734,-1.4734,-1.4804,-1.482,-1.4861,-1.488,-1.4867,-1.4965,-1.4948,-1.4916,-1.4863,-1.4961,-1.5001,-1.5017,-1.4803,-1.4801,-1.48,-1.4799,0,0,-1.4677,-1.4698,-1.4717,-1.4732,-1.4754,-1.4791,-1.4848,-1.4887,-1.4914,-1.4939,-1.4987,-1.5049,-1.5018,-1.504,-1.5028,-1.507,-1.5167,-1.5032,-1.5032,-1.5059,-1.5278,-1.5305,-1.5324,-1.515,-1.5153,-1.5155,-1.5277,0,-1.4797,-1.4895,-1.4879,-1.4975,-1.502,-1.4981,-1.5031,-1.505,-1.5051,-1.509,-1.509,-1.5135,-1.509,-1.5104,-1.5143,-1.5147,-1.5212,-1.5138,-1.5196,-1.5199,-1.5194,-1.5345,-1.5373,-1.5488,-1.5292,-1.5295,-1.5297,0,-1.4951,-1.4981,-1.5081,-1.5095,-1.5113,-1.5158,-1.5193,-1.5229,-1.525,-1.5247,-1.5271,-1.525,-1.5307,-1.525,-1.5329,-1.5279,-1.5302,-1.5307,-1.5311,-1.5319,-1.5256,-1.5359,-1.5524,-1.5542,-1.5321,-1.5319,-1.5317,0,-1.5064,-1.5129,-1.5197,-1.521,-1.5229,-1.5261,-1.527,-1.5287,-1.5312,-1.5342,-1.5357,-1.5394,-1.5414,-1.5443,-1.5433,-1.5392,-1.5514,-1.5456,-1.5515,-1.5516,-1.5546,-1.5545,-1.572,-1.5556,-1.5556,-1.5555,-1.5555,0,-1.5202,-1.5265,-1.5248,-1.529,-1.5359,-1.534,-1.5409,-1.5413,-1.5429,-1.5472,-1.544,-1.5481,-1.5463,-1.5503,-1.5495,-1.5562,-1.5571,-1.5572,-1.557,-1.5577,-1.5577,-1.5594,-1.5587,-1.556,-1.5559,-1.5558,-1.5557,0,-1.5341,-1.5332,-1.5404,-1.5414,-1.5418,-1.5469,-1.5478,-1.5518,-1.5514,-1.5569,-1.5581,-1.5577,-1.5622,-1.5613,-1.5663,-1.5657,-1.5743,-1.5729,-1.5736,-1.5734,-1.5794,-1.579,-1.5988,-1.6014,-1.5831,-1.5833,-1.5834,0,-1.5431,-1.5479,-1.5493,-1.5519,-1.553,-1.5572,-1.5596,-1.5578,-1.5604,-1.563,-1.5667,-1.5709,-1.5742,-1.5816,-1.5818,-1.5856,-1.5844,-1.5911,-1.585,-1.5856,-1.5848,-1.5847,-1.5852,-1.5924,-1.5927,-1.5928,-1.593,0,-1.5593,-1.5585,-1.5621,-1.5654,-1.5684,-1.571,-1.5733,-1.5756,-1.5739,-1.577,-1.5815,-1.584,-1.589,-1.5933,-1.5967,-1.5977,-1.5952,-1.5948,-1.5964,-1.5973,-1.5976,-1.5978,-1.5772,-1.5945,-1.5943,-1.5942,-1.5941,-1.5941,-1.5712,-1.5752,-1.5768,-1.5809,-1.5823,-1.5845,-1.5883,-1.5884,-1.5921,-1.5959,-1.5945,-1.5997,-1.6015,-1.6059,-1.6073,-1.6113,-1.6088,-1.6111,-1.6118,-1.6124,-1.6133,-1.5967,-1.6119,-1.6119,-1.6118,-1.6118,-1.6117,0,-1.5873,-1.5881,-1.5918,-1.5951,-1.5982,-1.5952,-1.5975,-1.6005,-1.605,-1.6069,-1.6101,-1.6152,-1.6193,-1.6196,-1.6235,-1.6266,-1.6256,-1.6277,-1.6276,-1.6279,-1.6152,-1.6135,-1.6285,-1.6285,-1.6285,-1.6285,-1.6285,-1.6285,-1.5961,-1.6028,-1.6022,-1.6096,-1.6103,-1.6153,-1.6169,-1.6189,-1.6204,-1.6262,-1.6295,-1.6297,-1.6309,-1.6348,-1.6384,-1.6383,-1.64,-1.6427,-1.6423,-1.6305,-1.6288,-1.6272,-1.6257,-1.643,-1.643,-1.6548,-1.6549,-1.655]},{"header":{"parameterUnit":"m.s-1","parameterCategory":1,"la1":30.2991,"la2":30.254,"lo1":-89.0895,"lo2":-89.0444,"dy":0.0017,"dx":0.0017,"nx":28,"ny":28,"refTime":"2025-11-05T09:00:00:Z","depth":0,"parameterNumber":3,"parameterNumberName":"V-component_of_WINDS"},"data":[0,0,0,0,0,0,0,0,0,0,0,0,0,0,0,0,0,0,0,0,0,0,0,0,0,0,0,0,0,0,0,0,0,0,0,0,0,0,0,0,0,0,0,0,0,0,0,0,0,0,0,0,0,0,0,0,0,0,-2.9226,-2.9227,0,-2.9278,-2.9279,-2.928,-2.9252,-2.925,-2.9249,-2.9248,-2.93,-2.9302,-2.9305,0,0,0,0,0,0,0,0,0,0,0,0,0,-2.91,-2.9103,-2.9226,-2.9227,-2.9228,-2.9278,-2.9279,-2.928,-2.9252,-2.925,-2.9248,-2.9247,-2.9299,-2.9302,-2.9305,0,0,0,0,0,0,0,0,0,0,0,0,0,-2.9154,-2.9103,-2.9226,-2.922,-2.922,-2.9278,-2.9279,-2.928,-2.9252,-2.925,-2.9248,-2.9246,-2.9298,-2.9302,-2.9306,-2.9373,0,0,-2.9318,-2.932,0,0,0,0,0,0,0,0,-2.9151,-2.9159,-2.922,-2.922,-2.922,-2.9256,-2.9254,-2.9311,-2.9253,-2.924,-2.9247,-2.9245,-2.9287,-2.9292,-2.9306,-2.9375,-2.9378,-2.9318,-2.9321,-2.9322,-2.9324,0,0,0,0,0,0,0,-2.9147,-2.9156,-2.9247,-2.9221,-2.9221,-2.9214,-2.9219,-2.9264,-2.9275,-2.9241,-2.9239,-2.9246,-2.9286,-2.9302,-2.9307,-2.9378,-2.9318,-2.9322,-2.9324,-2.9326,-2.9504,-2.9506,0,0,0,0,0,0,-2.9144,-2.9153,-2.9245,-2.9248,-2.918,-2.9218,-2.9224,-2.9247,-2.9274,-2.9276,-2.9247,-2.9244,-2.9296,-2.9302,-2.9309,-2.9389,-2.9322,-2.9326,-2.9329,-2.9502,-2.9505,-2.9507,0,0,0,0,0,0,-2.9141,-2.9153,-2.9243,-2.92,-2.9211,-2.9222,-2.9249,-2.9249,-2.9265,-2.9279,-2.928,-2.9262,-2.9295,-2.9303,-2.9357,-2.939,-2.9328,-2.9332,-2.9499,-2.9503,-2.9506,-2.955,0,0,0,0,0,0,-2.9138,-2.9152,-2.9178,-2.9201,-2.9214,-2.9291,-2.9251,-2.9252,-2.9272,-2.9268,-2.9293,-2.9295,-2.9294,-2.9351,-2.9361,-2.9395,-2.9335,-2.9496,-2.9501,-2.9505,-2.9545,-2.9554,-2.9562,0,0,0,0,0,-2.9134,-2.9188,-2.918,-2.9191,-2.9247,-2.9293,-2.93,-2.9299,-2.9275,-2.9301,-2.931,-2.9294,-2.9385,-2.9357,-2.9368,-2.9403,-2.9494,-2.9499,-2.9504,-2.9542,-2.9552,-2.9562,0,0,0,0,0,0,-2.9169,-2.9191,-2.9182,-2.9246,-2.9268,-2.9288,-2.9321,-2.931,-2.9339,-2.9335,-2.9331,-2.9336,-2.9392,-2.9403,-2.9371,-2.9469,-2.9436,-2.9443,-2.946,-2.9471,-2.9479,-2.9475,-2.9338,0,0,0,0,0,-2.9184,-2.922,-2.9238,-2.9292,-2.9304,-2.9311,-2.9331,-2.9328,-2.935,-2.9359,-2.9372,-2.9394,-2.9427,-2.945,-2.9481,-2.9547,-2.9551,-2.9576,-2.9584,-2.9591,-2.9598,-2.9632,-2.9643,-2.9524,-2.9524,-2.9524,0,0,-2.9215,-2.9232,-2.9255,-2.93,-2.9316,-2.9353,-2.9319,-2.936,-2.9387,-2.9365,-2.9417,-2.9427,-2.9451,-2.9511,-2.9538,-2.9522,-2.9631,-2.9598,-2.9603,-2.9606,-2.9639,-2.965,-2.966,-2.9528,-2.9527,-2.9526,0,0,-2.9292,-2.9309,-2.9356,-2.9373,-2.9399,-2.9403,-2.9414,-2.9437,-2.9443,-2.9494,-2.9479,-2.9511,-2.9568,-2.9586,-2.9603,-2.9685,-2.9671,-2.9695,-2.9738,-2.9772,-2.9781,-2.979,-2.9819,-2.9829,-2.9702,-2.9702,-2.9702,0,-2.9328,-2.9384,-2.9381,-2.9423,-2.9443,-2.9425,-2.9472,-2.9489,-2.9524,-2.9537,-2.9518,-2.959,-2.9605,-2.9668,-2.9688,-2.9702,-2.9715,-2.9693,-2.978,-2.9789,-2.9796,-2.9824,-2.9835,-2.9705,-2.9704,-2.9704,-2.9704,0,-2.9427,-2.9466,-2.95,-2.9534,-2.9558,-2.9602,-2.9605,-2.9629,-2.9623,-2.9629,-2.9682,-2.9699,-2.9733,-2.9748,-2.9743,-2.9811,-2.98,-2.9781,-2.9747,-2.9811,-2.9836,-2.9847,-2.9709,-2.9708,-2.9707,-2.9706,0,0,-2.9528,-2.9559,-2.9572,-2.9587,-2.9614,-2.9643,-2.9686,-2.972,-2.974,-2.9764,-2.98,-2.9849,-2.9831,-2.985,-2.9847,-2.9876,-2.9939,-2.9854,-2.9854,-2.9869,-3.0014,-3.0028,-3.004,-2.993,-2.9932,-2.9934,-3.0012,0,-2.9606,-2.9682,-2.968,-2.975,-2.9785,-2.9769,-2.9806,-2.9826,-2.9832,-2.9862,-2.9869,-2.9903,-2.9878,-2.9889,-2.9918,-2.9926,-2.9969,-2.992,-2.9963,-2.9964,-2.9957,-3.0054,-3.0069,-3.0142,-3.0022,-3.0024,-3.0025,0,-2.9707,-2.9735,-2.9809,-2.983,-2.9844,-2.9878,-2.9909,-2.9938,-2.996,-2.9962,-2.9983,-2.9974,-3.0017,-2.9982,-3.004,-3.0007,-3.0024,-3.0031,-3.0034,-3.0038,-2.9999,-3.006,-3.0165,-3.0176,-3.0041,-3.004,-3.0038,0,-2.9773,-2.9829,-2.988,-2.9893,-2.9919,-2.9943,-2.9954,-2.9974,-2.9994,-3.0021,-3.0034,-3.0064,-3.0081,-3.0105,-3.0105,-3.0079,-3.0163,-3.0129,-3.0166,-3.0166,-3.0185,-3.0184,-3.0294,-3.0196,-3.0196,-3.0196,-3.0195,0,-2.9861,-2.9906,-2.991,-2.9941,-2.9992,-2.9989,-3.0038,-3.0048,-3.0065,-3.0097,-3.0084,-3.0115,-3.0113,-3.0143,-3.0143,-3.0191,-3.0199,-3.0201,-3.0201,-3.0203,-3.0202,-3.0214,-3.0209,-3.0199,-3.0198,-3.0197,-3.0197,0,-2.9943,-2.9947,-3.0002,-3.0021,-3.0027,-3.0063,-3.008,-3.0109,-3.0114,-3.0155,-3.0164,-3.0172,-3.0207,-3.0209,-3.0249,-3.0249,-3.0307,-3.0301,-3.03,-3.0299,-3.0336,-3.0333,-3.0458,-3.0474,-3.0366,-3.0367,-3.0368,0,-2.9999,-3.0033,-3.0057,-3.0077,-3.0091,-3.0124,-3.0145,-3.0143,-3.0165,-3.0192,-3.0218,-3.0252,-3.0279,-3.0335,-3.0344,-3.0375,-3.0369,-3.0411,-3.0374,-3.0374,-3.0369,-3.0367,-3.037,-3.0418,-3.0419,-3.042,-3.0421,0,-3.0097,-3.0097,-3.0127,-3.0158,-3.0183,-3.0208,-3.023,-3.0248,-3.0248,-3.0273,-3.0309,-3.033,-3.0371,-3.0405,-3.0435,-3.0445,-3.0433,-3.0432,-3.0443,-3.0445,-3.0443,-3.0444,-3.032,-3.043,-3.0429,-3.0428,-3.0428,-3.0427,-3.0167,-3.0197,-3.0218,-3.0252,-3.0269,-3.029,-3.0318,-3.0326,-3.0357,-3.039,-3.0387,-3.0427,-3.0446,-3.0485,-3.0498,-3.0529,-3.0515,-3.053,-3.0533,-3.0537,-3.0541,-3.0438,-3.0534,-3.0534,-3.0534,-3.0534,-3.0533,0,-3.0265,-3.0277,-3.0308,-3.034,-3.0367,-3.0353,-3.0377,-3.04,-3.0435,-3.0455,-3.0482,-3.0522,-3.0555,-3.0566,-3.0597,-3.0619,-3.0614,-3.0627,-3.0625,-3.0628,-3.0552,-3.054,-3.0631,-3.0631,-3.0631,-3.063,-3.063,-3.063,-3.0318,-3.0368,-3.037,-3.0428,-3.0439,-3.0479,-3.0493,-3.0512,-3.0528,-3.0574,-3.0601,-3.0608,-3.0624,-3.0656,-3.0685,-3.0687,-3.0699,-3.0715,-3.0714,-3.0643,-3.0634,-3.0624,-3.0613,-3.0717,-3.0717,-3.0788,-3.0789,-3.0789]}]]